Hourly Weather Abel Tasman National Park

Today, 1 March, Monday

Time Temperature Precipitation Wind Pressure Humidity
00:00 +15°C° 0 mm 1 mps 729 mmHg 82%
01:00 +15°C° 0.2 mm 1 mps 729 mmHg 84%
02:00 +15°C° 0.2 mm 2 mps 729 mmHg 85%
03:00 +15°C° 0.2 mm 2 mps 728 mmHg 86%
04:00 +15°C° 0.2 mm 1 mps 728 mmHg 88%
05:00 +15°C° 0.2 mm 1 mps 728 mmHg 89%
06:00 +15°C° 0.2 mm 1 mps 728 mmHg 91%
07:00 +15°C° 1 mm 2 mps 728 mmHg 92%
08:00 +15°C° 1 mm 2 mps 728 mmHg 94%
09:00 +15°C° 1 mm 2 mps 728 mmHg 96%
10:00 +15°C° 1.6 mm 2 mps 728 mmHg 96%
11:00 +16°C° 1.6 mm 3 mps 728 mmHg 96%
12:00 +16°C° 1.6 mm 3 mps 727 mmHg 96%
13:00 +16°C° 2.9 mm 2 mps 727 mmHg 96%
14:00 +16°C° 2.9 mm 2 mps 727 mmHg 96%
15:00 +15°C° 2.9 mm 1 mps 727 mmHg 97%
16:00 +15°C° 1.4 mm 1 mps 726 mmHg 97%
17:00 +15°C° 1.4 mm 1 mps 726 mmHg 97%
18:00 +16°C° 1.4 mm 2 mps 726 mmHg 97%
19:00 +15°C° 0.4 mm 2 mps 726 mmHg 96%
20:00 +15°C° 0.4 mm 2 mps 726 mmHg 96%
21:00 +15°C° 0.4 mm 2 mps 726 mmHg 96%
22:00 +15°C° 0.3 mm 2 mps 726 mmHg 96%
23:00 +15°C° 0.3 mm 2 mps 726 mmHg 96%

Tomorrow, 2 March, Tuesday

Time Temperature Precipitation Wind Pressure Humidity
00:00 +15°C° 0.3 mm 2 mps 726 mmHg 96%
01:00 +14°C° 0.7 mm 3 mps 726 mmHg 96%
02:00 +14°C° 0.7 mm 3 mps 725 mmHg 96%
03:00 +14°C° 0.7 mm 4 mps 725 mmHg 97%
04:00 +16°C° 0.6 mm 3 mps 725 mmHg 97%
05:00 +16°C° 0.6 mm 3 mps 725 mmHg 97%
06:00 +16°C° 0.6 mm 3 mps 725 mmHg 97%
07:00 +16°C° 0.3 mm 3 mps 725 mmHg 95%
08:00 +17°C° 0.3 mm 2 mps 725 mmHg 93%
09:00 +17°C° 0.3 mm 2 mps 725 mmHg 91%
10:00 +18°C° 0.4 mm 2 mps 725 mmHg 89%
11:00 +18°C° 0.4 mm 3 mps 725 mmHg 88%
12:00 +18°C° 0.4 mm 4 mps 724 mmHg 86%
13:00 +19°C° 0.3 mm 4 mps 724 mmHg 82%
14:00 +19°C° 0.3 mm 5 mps 724 mmHg 78%
15:00 +20°C° 0.3 mm 5 mps 723 mmHg 74%
16:00 +20°C° 0.1 mm 5 mps 723 mmHg 75%
17:00 +20°C° 0.1 mm 4 mps 723 mmHg 75%
18:00 +19°C° 0.1 mm 4 mps 723 mmHg 76%
19:00 +18°C° 0 mm 4 mps 723 mmHg 82%
20:00 +17°C° 0 mm 4 mps 723 mmHg 87%
21:00 +14°C° 0 mm 4 mps 724 mmHg 93%
22:00 +14°C° 0 mm 4 mps 723 mmHg 92%
23:00 +13°C° 0 mm 3 mps 723 mmHg 91%

Day after tomorrow, 3 March, Wednesday

Time Temperature Precipitation Wind Pressure Humidity
00:00 +13°C° 0 mm 3 mps 723 mmHg 89%
01:00 +13°C° 0 mm 3 mps 723 mmHg 88%
02:00 +12°C° 0 mm 3 mps 723 mmHg 87%
03:00 +12°C° 0 mm 3 mps 723 mmHg 86%
04:00 +12°C° 0 mm 3 mps 722 mmHg 86%
05:00 +12°C° 0 mm 3 mps 722 mmHg 86%
06:00 +12°C° 0 mm 2 mps 722 mmHg 86%
07:00 +14°C° 0 mm 2 mps 722 mmHg 78%
08:00 +16°C° 0 mm 2 mps 722 mmHg 71%
09:00 +18°C° 0 mm 2 mps 722 mmHg 64%
10:00 +19°C° 0 mm 4 mps 722 mmHg 63%
11:00 +20°C° 0 mm 5 mps 722 mmHg 62%
12:00 +21°C° 0 mm 6 mps 722 mmHg 61%
13:00 +20°C° 0.2 mm 6 mps 722 mmHg 66%
14:00 +20°C° 0.2 mm 6 mps 722 mmHg 72%
15:00 +19°C° 0.2 mm 5 mps 721 mmHg 78%
16:00 +19°C° 0.1 mm 5 mps 721 mmHg 75%
17:00 +19°C° 0.1 mm 5 mps 721 mmHg 72%
18:00 +19°C° 0.1 mm 5 mps 721 mmHg 69%
19:00 +16°C° 0 mm 5 mps 721 mmHg 75%
20:00 +15°C° 0 mm 5 mps 722 mmHg 81%
21:00 +13°C° 0 mm 5 mps 722 mmHg 87%
22:00 +12°C° 0 mm 4 mps 722 mmHg 86%
23:00 +12°C° 0 mm 3 mps 722 mmHg 86%

4 March, Thursday

Time Temperature Precipitation Wind Pressure Humidity
00:00 +11°C° 0 mm 3 mps 722 mmHg 86%
01:00 +12°C° 0 mm 2 mps 721 mmHg 85%
02:00 +12°C° 0 mm 2 mps 721 mmHg 85%
03:00 +12°C° 0 mm 2 mps 721 mmHg 85%
04:00 +12°C° 0 mm 2 mps 721 mmHg 84%
05:00 +12°C° 0 mm 2 mps 721 mmHg 84%
06:00 +10°C° 0 mm 2 mps 720 mmHg 84%
07:00 +13°C° 0 mm 2 mps 720 mmHg 75%
08:00 +15°C° 0 mm 2 mps 720 mmHg 67%
09:00 +17°C° 0 mm 2 mps 720 mmHg 59%
10:00 +18°C° 0 mm 2 mps 720 mmHg 55%
11:00 +19°C° 0 mm 2 mps 720 mmHg 51%
12:00 +20°C° 0 mm 2 mps 719 mmHg 48%
13:00 +20°C° 0.1 mm 2 mps 719 mmHg 51%
14:00 +20°C° 0.1 mm 2 mps 718 mmHg 54%
15:00 +20°C° 0.1 mm 2 mps 718 mmHg 57%
16:00 +19°C° 0.1 mm 2 mps 718 mmHg 62%
17:00 +18°C° 0.1 mm 3 mps 718 mmHg 66%
18:00 +17°C° 0.1 mm 4 mps 717 mmHg 70%
19:00 +14°C° 0 mm 4 mps 718 mmHg 74%
20:00 +12°C° 0 mm 5 mps 718 mmHg 78%
21:00 +9°C° 0 mm 5 mps 718 mmHg 81%
22:00 +9°C° 0 mm 5 mps 718 mmHg 83%
23:00 +8°C° 0 mm 5 mps 718 mmHg 84%

5 March, Friday

Time Temperature Precipitation Wind Pressure Humidity
00:00 +8°C° 0 mm 4 mps 718 mmHg 85%
01:00 +8°C° 0 mm 4 mps 718 mmHg 85%
02:00 +8°C° 0 mm 4 mps 718 mmHg 84%
03:00 +8°C° 0 mm 4 mps 718 mmHg 84%
04:00 +8°C° 0 mm 4 mps 718 mmHg 84%
05:00 +7°C° 0 mm 4 mps 718 mmHg 84%
06:00 +7°C° 0 mm 4 mps 718 mmHg 85%
07:00 +10°C° 0 mm 4 mps 718 mmHg 77%
08:00 +11°C° 0 mm 4 mps 718 mmHg 68%
09:00 +13°C° 0 mm 4 mps 718 mmHg 60%
10:00 +13°C° 0 mm 5 mps 718 mmHg 64%
11:00 +14°C° 0 mm 6 mps 717 mmHg 68%
12:00 +14°C° 0 mm 6 mps 717 mmHg 72%
13:00 +14°C° 0.1 mm 7 mps 717 mmHg 76%
14:00 +13°C° 0.1 mm 8 mps 716 mmHg 80%
15:00 +13°C° 0.1 mm 9 mps 716 mmHg 84%
16:00 +13°C° 1.4 mm 9 mps 716 mmHg 88%
17:00 +12°C° 1.4 mm 9 mps 715 mmHg 91%
18:00 +12°C° 1.4 mm 9 mps 715 mmHg 95%
19:00 +12°C° 2.2 mm 8 mps 715 mmHg 95%
20:00 +12°C° 2.2 mm 7 mps 715 mmHg 95%
21:00 +13°C° 2.2 mm 6 mps 715 mmHg 95%
22:00 +12°C° 0.3 mm 5 mps 715 mmHg 94%
23:00 +12°C° 0.3 mm 5 mps 715 mmHg 94%

6 March, Saturday

Time Temperature Precipitation Wind Pressure Humidity
00:00 +11°C° 0.3 mm 4 mps 715 mmHg 94%
01:00 +10°C° 0 mm 4 mps 715 mmHg 93%
02:00 +8°C° 0 mm 4 mps 715 mmHg 93%
03:00 +8°C° 0 mm 3 mps 715 mmHg 92%
04:00 +8°C° 0 mm 3 mps 715 mmHg 91%
05:00 +8°C° 0 mm 3 mps 715 mmHg 91%
06:00 +7°C° 0 mm 3 mps 715 mmHg 90%
07:00 +9°C° 0 mm 3 mps 715 mmHg 82%
08:00 +11°C° 0 mm 3 mps 716 mmHg 74%
09:00 +13°C° 0 mm 3 mps 716 mmHg 66%
10:00 +14°C° 0 mm 3 mps 716 mmHg 60%
11:00 +15°C° 0 mm 4 mps 716 mmHg 54%
12:00 +16°C° 0 mm 5 mps 716 mmHg 48%
13:00 +16°C° 0.1 mm 5 mps 716 mmHg 50%
14:00 +16°C° 0.1 mm 5 mps 715 mmHg 52%
15:00 +16°C° 0.1 mm 5 mps 715 mmHg 54%
16:00 +15°C° 0 mm 5 mps 715 mmHg 55%
17:00 +14°C° 0 mm 6 mps 715 mmHg 56%
18:00 +13°C° 0 mm 6 mps 715 mmHg 57%
19:00 +12°C° 0 mm 5 mps 715 mmHg 64%
20:00 +9°C° 0 mm 5 mps 715 mmHg 70%
21:00 +7°C° 0 mm 4 mps 716 mmHg 77%
22:00 +7°C° 0 mm 4 mps 716 mmHg 78%
23:00 +7°C° 0 mm 4 mps 716 mmHg 78%
Show more

We Need Your Consent

Meteoprog and our Service Providers may store and access personal data such as cookies, device identifiers or other similar technologies on your device and process such data to personalise content and ads, as well as provide social media features and to analyse the traffic.

  • Store and/or access information on your device

    Cookies, device identifiers or other information can be stored or accessed on your device for the purposes indicated above.

  • Personalised ads and content, ad and content measurement, audience insights, and products development

    Ads and content can be personalised based on a profile. More data can be added to better personalise ads and content. Ad and content performance can be measured. Insights about the audience who saw the ads and content can be derived. Such data can be used to develop or improve user’s experience, systems and software.

By clicking ‘I Agree’ you will allow the use of indicated cookies, device identifiers, web beacons or other similar technologies. Your settings can be changed in the browser on your device.

For certain purposes, legitimate interests may be relied on, rather than consent. You can read more about this in our Privacy and Cookie Policy.